www.pogodaiklimat.ru

Погода и климат >> Архив погоды >> Россия >> Эвенкия >> Тура


АРХИВ ПОГОДЫ в Туре

Время (UTC), дата Ветер
(напр.,м/с)
 
Видим.   Явления Облачность Т
(С)
Тd
(С)
f
(%)
Тe
(С)
Тes
(С)
Комфортность P
(гПа)
Po
(гПа)
Тmin
(С)
Tmax
(С)
R
(мм)
R24
(мм)
S
(см)
15 13.07 С 2 20 км {ливн. осадки} 8/8 600 м
[Cb cap]
+18.6 +15.4 82 +20 +20 1009.4 987.4
18 13.07 СЗ 1 н/о слаб. ливневой дождь 10/10 600 м
[Cb cap]
+16.2 +14.8 91 +17 +17 1009.1 986.8
21 13.07 С 1 20 км {ливн. осадки} 10/10 600 м
[Cb cap]
+15.3 +13.7 90 +16 +16 1008.3 986.0
00 14.07 ЮВ 1 20 км {ливн. осадки} 9/9 600 м
[Cb cap]
+17.0 +15.3 90 +18 +18 1007.9 985.7 +15.1 3
03 14.07 В 2 20 км 10/8 600 м
[Cb cap Ac As]
+19.7 +15.3 76 +22 +23 комфорт 1007.5 985.5
06 14.07 В 3 20 км 10/5 600 м
[Cb cap Ac trans Cs]
+23.1 +15.8 63 +27 +30 душно 1007.2 985.5
09 14.07 С 2 10 км гроза, ливневой дождь 10/10 600 м
[Cb cap]
+19.0 +15.6 81 +21 +21 комфорт 1008.0 986.0
12 14.07 В 2 10 км дым {гроза, ливн. осадки} 9/8 600 м
[Cb cap Ac trans Ci sp]
+19.7 +14.5 72 +22 +22 комфорт 1009.9 987.8 +23.5 0.7
15 14.07 ЮВ 1 10 км дым 10/4 600 м
[Cb cap Ac trans Ci fib]
+17.0 +14.6 86 +18 +18 1012.5 990.2
18 14.07 СВ 2 н/о дым 10/8 600 м
[Cb cap Ci fib]
+15.1 +13.9 93 +15 +15 1013.1 990.6
21 14.07 С 1 10 км дым 10/9 600 м
[Cb cap Ac trans]
+15.8 +14.0 89 +16 +16 1014.5 992.1
00 15.07 С 2 20 км 10/10 600 м
[Cb cap]
+16.7 +14.3 86 +17 +17 1015.1 992.6 +14.8
03 15.07 С 2 20 км 4/0
[Ac trans Ci fib]
+21.2 +16.1 73 +25 +32 комфорт 1015.3 993.2
06 15.07 ЮВ 1 20 км 6/3 1000 м
[Cu med, cong Ci fib]
+27.1 +16.9 54 +31 +40 душно 1014.2 992.5
09 15.07 С 1 20 км 8/8 600 м
[Cb cap]
+26.4 +15.0 50 +29 +31 жарко 1013.9 992.3
12 15.07 В 3 20 км 3/1 1000 м
[Cu hum Ci fib]
+27.3 +12.6 40 +29 +30 жарко 1013.7 992.1 +28.1
15 15.07 штиль 0 20 км ясно +23.2 +12.8 52 +26 +26 жарко 1015.3 993.3
18 15.07 штиль 0 н/о ясно +15.8 +13.3 85 +16 +16 1017.0 994.4
21 15.07 штиль 0 20 км ясно +13.2 +12.5 96 +13 +13 1017.5 994.8
00 16.07 ЮВ 1 20 км ясно +16.4 +13.8 85 +17 +21 1018.0 995.5 +12.9
03 16.07 С 1 20 км 1/1 1000 м
[Cu hum]
+25.2 +15.9 56 +28 +38 жарко 1016.2 994.4
06 16.07 СВ 1 20 км 8/8 1000 м
[Cu hum Ci fib]
+28.9 +13.3 38 +30 +33 жарко 1014.5 993.0
09 16.07 СВ 1 20 км 6/5 1000 м
[Cu hum Ci fib]
+29.4 +11.7 34 +30 +34 жарко 1013.2 991.8
12 16.07 СВ 1 20 км 3/3 1000 м
[Cu hum]
+29.4 +13.8 38 +31 +32 жарко 1012.7 991.3 +30.2
15 16.07 штиль 0 20 км ясно +22.0 +15.3 66 +26 +26 душно 1013.0 991.1
18 16.07 штиль 0 н/о ясно +16.0 +14.2 89 +16 +16 1014.3 991.9
21 16.07 штиль 0 20 км ясно +13.5 +12.8 96 +13 +13 1014.3 991.7
00 17.07 З 1 20 км ясно +17.2 +13.7 80 +18 +22 1013.7 991.4 +13.5
03 17.07 З 1 20 км ясно +23.8 +14.6 56 +26 +38 жарко 1011.7 989.9
06 17.07 З 2 20 км 3/3 1000 м
[Cu med, cong]
+30.2 +14.0 37 +32 +40 жарко 1009.5 988.2
09 17.07 В 5
{10}
20 км 8/6 600 м
[Cb cap Ci fib]
+32.4 +14.8 35 +34 +36 очень
жарко
1008.2 987.1
12 17.07 СВ 4 20 км 8/4 600 м
[Cb cap Ci fib]
+26.4 +14.8 49 +29 +30 жарко 1010.9 989.3 +32.6
15 17.07 СВ 2 20 км 6/4 600 м
[Cb cap Ci fib]
+21.1 +12.0 56 +23 +23 комфорт 1014.3 992.3
18 17.07 З 3 н/о 3/3 1000 м
[Sc Ci fib]
+18.0 +10.6 62 +18 +18 1016.6 994.2
21 17.07 СВ 4 20 км 8/0
[Ci fib]
+14.2 +8.7 69 +13 +13 1018.0 995.3
00 18.07 В 3 20 км 4/3 1000 м
[Cu Sc Ci fib]
+16.4 +8.1 58 +16 +18 1018.7 996.2 +13.8
03 18.07 В 3 20 км 3/3 1000 м
[Cu hum]
+19.3 +6.3 43 +20 +26 1017.9 995.6
06 18.07 В 4 20 км 1/1 1000 м
[Cu hum]
+21.5 +6.3 37 +22 +29 комфорт 1016.3 994.2
09 18.07 В 3 20 км ясно +23.3 +4.8 30 +23 +29 комфорт 1015.3 993.3
12 18.07 В 4 20 км ясно +22.6 +1.7 25 +22 +23 комфорт 1015.5 993.4 +23.3
15 18.07 СВ 4 20 км 4/0
[Ac trans Ci fib]
+18.4 +4.1 39 +18 +18 1016.7 994.3
18 18.07 СЗ 1 н/о 4/3 1000 м
[Sc Ac trans]
+16.6 +3.4 41 +18 +18 1018.7 996.2
21 18.07 С 1 20 км ясно +12.0 +3.2 55 +12 +12 1020.8 997.8
00 19.07 В 1 20 км ясно +15.8 +3.4 43 +17 +21 1022.0 999.3 +11.5
03 19.07 В 3 20 км ясно +18.8 +3.2 35 +19 +27 1021.9 999.4
06 19.07 В 3 20 км 1/0
[Cc]
+20.3 +0.5 27 +21 +30 комфорт 1021.2 998.8
09 19.07 В 4
{10}
20 км ясно +21.4 +1.5 27 +21 +26 комфорт 1019.8 997.5
12 19.07 СВ 3
{11}
20 км 1/0
[Ci fib]
+20.8 +1.8 28 +21 +22 комфорт 1019.3 997.1 +21.4
15 19.07 В 1 20 км ясно +17.2 +3.4 40 +18 +18 1021.2 998.6
18 19.07 СЗ 1 н/о ясно +10.4 +4.1 65 +10 +10 1023.0 999.8
21 19.07 ЮВ 1 20 км ясно +6.3 +4.2 86 +5 +5 1024.7 1001.2
00 20.07 ЮВ 1 20 км ясно +11.8 +5.3 64 +12 +16 1025.0 1002.0 +6.0
03 20.07 В 3 10 км дым 3/0
[Ci fib]
+19.4 +3.3 34 +20 +27 1023.4 1000.9
06 20.07 В 3
{10}
20 км 3/0
[Ci fib]
+21.8 +2.9 29 +22 +31 комфорт 1021.6 999.4
09 20.07 В 4 20 км 3/0
[Ci fib]
+23.4 +1.8 24 +23 +27 комфорт 1020.0 997.8
12 20.07 В 3 20 км 3/0
[Ci fib]
+23.2 +1.0 23 +22 +23 комфорт 1019.0 997.0 +23.8

 

Местоположение метеостанции Тура (Эвенкия, Россия): широта 64.33 долгота 100.40 высота над уровнем моря 624 м.

В архиве по умолчанию представлена погода в Туре за последнюю неделю. Архивные данные за месяц целиком и за предыдущие месяцы, начиная с января 2011 года, Вы можете получить, выбрав интересующий диапазон дат из раскрывающегося списка и нажав кнопку "Ввод!".


*Определитесь, кто Вы:
робот инопланетянин человек

Внимание! Время в таблицах - всемирное. Для получения местного времени необходимо прибавить поправку, которая равна 7 ч.

Смотрите также архив погоды в соседних городах и на ближайших метеорологических станциях:

Погода в Тембенчи (Эвенкия, Россия) (99 км)
Погода в Кербо (Эвенкия, Россия) (182 км)
Погода в Кислокане (Эвенкия, Россия) (190 км)
Погода в Стрелке-Чуне (Эвенкия, Россия) (311 км)
Погода в Тутончанах (Эвенкия, Россия) (320 км)
Погода в Муторае (Эвенкия, Россия) (334 км)
Погода в Байките (Эвенкия, Россия) (359 км)
Погода в Агате (Эвенкия, Россия) (426 км)
Погода в Усть-Камо (Эвенкия, Россия) (428 км)
Погода в Ванаваре (Эвенкия, Россия) (456 км)

Пояснения к столбцам:

Ветер - указаны скорость ветра в м/с - средняя за 10 мин, порывы в срок и между сроками (в фигурных скобках) и направление, откуда дует ветер: С - северный, СВ - северо-восточный, В - восточный, ЮВ - юго-восточный, Ю - южный, ЮЗ - юго-западный, З - западный, СЗ - северо-западный.
Видимость - горизонтальная дальность видимости в метрах или километрах. При видимости от 1 до 10 км при отсутствии осадков обычно наблюдается дымка, при ухудшении видимости до 1 км и менее - туман. В сухую погоду видимость может ухудшаться дымом, пылью или мглою.
Явления - указаны атмосферные явления, наблюдавшиеся в срок или в последний час перед сроком; фигурными скобками обозначены явления, наблюдавшиеся между сроками (за 1-3 часа до срока); квадратными скобками обозначены град или гололедные отложения с указанием их диаметра в мм.
Облачность - указаны через наклонную черту общая и нижняя облачность в баллах и высота нижней границы облаков в метрах; квадратными скобками обозначены формы облаков: Ci - перистые, Cs - перисто-слоистые, Cc - перисто-кучевые, Ac - высококучевые, As - высокослоистые, Sc - слоисто-кучевые, Ns - слоисто-дождевые, Cu - кучевые, Cb - кучево-дождевые. Подробнее классификацию облаков см. в Атласе облаков (PDF).
T - Температура воздуха - температура, измеренная на высоте 2 м над землей.
Td - Температура точки росы - температура, при понижении до которой содержащийся в воздухе водяной пар достигнет насыщения.
f - Относительная влажность воздуха - влажноcть воздуха, измеренная на высоте 2 м над землей.
Te - Эффективная температура - температура, которую ощущает одетый по сезону человек в тени. Характеристика душности погоды. При расчете учитывается влияние влажности воздуха и скорости ветра на теплоощущения человека.
Tes - Эффективная температура на солнце - температура, которую ощущает человек, с поправкой на солнечный нагрев. Характеристика знойности погоды. Зависит от высоты солнца над горизонтом, облачности и скорости ветра. Ночью, в пасмурную погоду, а также при ветре 12 м/с и более поправка равна нулю.
P - Атмосферное давление - приведенное к уровню моря атмосферное давление.
Po - Атмосферное давление - измеренное на уровне метеостанции атмосферное давление.
Tmin - Минимальная температура - минимум температуры воздуха на высоте 2 м над землей.
Tmax - Максимальная температура - максимум температуры воздуха на высоте 2 м над землей.
R - Количество осадков - Количество выпавших осадков за период времени, мм. При наведении курсора мыши на число - период времени, за который выпало указанное количество осадков.
R24 - Количество осадков - Количество выпавших осадков за 24 часа, мм.
S - Снежный покров - Высота снежного покрова, см. При наведении курсора мыши на число - состояние снежного покрова и степень покрытия местности в баллах.